EDT,Max TemperatureF,Mean TemperatureF,Min TemperatureF,Max Dew PointF,MeanDew PointF,Min DewpointF,Max Humidity, Mean Humidity, Min Humidity, Max Sea Level PressureIn, Mean Sea Level PressureIn, Min Sea Level PressureIn, Max VisibilityMiles, Mean VisibilityMiles, Min VisibilityMiles, Max Wind SpeedMPH, Mean Wind SpeedMPH, Max Gust SpeedMPH,PrecipitationIn, CloudCover, Events, WindDirDegrees
2013-3-1,34,28,22,20,16,14,71,59,47,30.21,30.13,30.06,10,10,10,16,7,22,0.00,4,,18
2013-3-2,31,24,17,16,13,10,80,67,53,30.20,30.16,30.11,10,10,10,17,8,25,0.00,2,,352
2013-3-3,31,21,10,16,12,5,83,66,49,30.14,30.11,30.06,10,10,10,16,6,22,0.00,2,,323
2013-3-4,33,21,8,15,10,3,84,60,35,30.19,30.15,30.10,10,10,10,12,2,14,0.00,0,,82
2013-3-5,33,27,20,21,17,10,75,67,58,30.12,29.98,29.90,10,10,10,22,12,29,0.00,6,,67
2013-3-6,38,33,28,28,25,21,82,71,59,30.27,30.16,30.01,10,10,10,21,9,28,0.00,7,,331
2013-3-7,36,28,20,28,22,17,82,69,56,30.45,30.37,30.24,10,10,10,16,6,21,0.00,5,,326
2013-3-8,38,27,16,24,18,13,84,64,44,30.53,30.48,30.40,10,10,10,10,2,13,0.00,0,,204
2013-3-9,42,33,24,31,25,18,76,66,55,30.39,30.19,29.94,10,10,10,21,11,26,T,4,Rain,133
2013-3-10,50,45,39,43,39,31,96,79,62,29.91,29.82,29.67,10,5,0,22,9,29,0.62,8,Fog-Rain,143
2013-3-11,49,42,35,45,39,32,96,91,85,29.67,29.59,29.47,10,3,0,21,9,28,0.11,8,Fog-Rain-Snow,215
2013-3-12,35,33,30,32,25,19,89,76,63,29.91,29.81,29.66,10,7,1,14,11,22,0.01,8,Rain-Snow,272
2013-3-13,32,29,25,22,17,10,75,59,43,30.27,30.07,29.89,10,6,0,25,14,35,0.05,7,Snow,313
2013-3-14,38,29,20,26,19,14,74,61,47,30.30,30.22,30.09,10,10,10,14,7,20,0.00,2,,255
2013-3-15,40,36,31,34,31,29,92,81,70,30.07,29.92,29.84,10,7,2,13,8,20,0.04,7,Rain-Snow,299
2013-3-16,36,31,26,28,22,17,85,69,52,30.11,29.90,29.77,10,7,1,18,10,23,0.04,7,Snow,9
2013-3-17,35,30,24,18,12,7,62,50,38,30.30,30.21,30.11,10,10,10,17,10,24,0.00,3,,51
2013-3-18,35,29,22,31,25,14,89,76,62,30.12,29.71,29.56,10,4,1,26,13,37,0.20,7,Rain-Snow,123
2013-3-19,30,26,21,23,15,11,77,60,43,29.98,29.80,29.62,10,5,0,25,16,36,0.03,7,Snow,268
2013-3-20,27,23,19,16,12,9,77,64,50,30.01,29.98,29.95,10,5,0,20,11,24,0.06,8,Snow,299
2013-3-21,32,27,21,23,19,13,84,71,58,30.02,29.96,29.91,10,6,1,20,11,26,0.03,8,Snow,307
2013-3-22,34,31,27,22,19,16,69,64,58,30.08,30.03,30.00,10,10,10,15,8,21,0.00,5,,300
2013-3-23,38,33,28,22,21,19,69,59,48,30.17,30.10,30.06,10,10,10,12,5,18,0.00,7,,9
2013-3-24,40,34,27,23,22,20,81,65,48,30.08,29.91,29.73,10,10,10,22,10,29,0.00,6,,55
2013-3-25,41,35,28,25,22,18,69,59,48,30.03,29.84,29.73,10,10,9,20,12,25,T,7,Snow,3
2013-3-26,43,36,29,32,29,25,85,77,69,30.21,30.11,30.03,10,10,7,20,9,24,T,7,Rain-Snow,316
2013-3-27,43,38,32,30,26,21,89,66,43,30.28,30.25,30.22,10,10,10,21,10,28,0.00,1,,296
2013-3-28,46,37,27,27,23,17,85,59,33,30.33,30.31,30.28,10,10,10,17,6,21,0.00,0,,287
2013-3-29,47,36,24,32,25,20,92,65,37,30.32,30.30,30.27,10,7,0,12,3,16,0.00,1,Fog,252
2013-3-30,55,39,22,35,24,15,92,58,24,30.26,30.15,29.87,10,6,0,21,8,29,T,3,Fog-Rain,185
2013-3-31,47,40,33,39,36,26,92,78,64,29.84,29.74,29.69,10,5,2,25,11,35,0.06,8,Rain,255